Vertical_Velocity
-0 -0 -0 -0 -0 -0 -1 -0 1 1 1 0 -1 -1 -2 -2 -2 -2 -1 0 -0 -1 -2 -2 -1 -1 -1 -0 1 1 0 -0 0 0 0 -0 -1 -1 -2 -1 -1 -0 -0 -1 -2 -2 -2 1 -2 -4 -5 -3 -1 -1 -2 -1 2 6 8 9 6 4 2 0 -2 -2 -0 3 4
-0 -0 -0 0 0 0 -0 -0 0 1 1 1 -0 -1 -2 -2 -2 -2 -1 -0 -0 -1 -1 -2 -2 -1 -1 0 2 2 1 -1 -1 -1 -1 -1 -1 -1 -1 -2 -0 1 1 -0 -2 -3 -3 -3 -4 -4 -4 -3 -2 -2 -3 -2 4 7 7 3 1 -1 -3 -3 -3 -2 1 4 4
-0 -1 -1 -0 -0 -0 -1 -1 -0 0 1 1 0 -0 -1 -1 -1 -1 -1 -1 -0 -0 -0 -1 -2 -1 0 1 2 2 1 -0 -1 -1 -1 -1 -1 -1 -1 -1 -1 -0 -0 -1 -2 -2 -2 -2 -2 -2 -2 -2 -3 -4 -4 -4 2 4 2 -2 -2 -2 -2 -4 -4 -1 2 6 4
-0 -0 -1 -1 -1 -0 -0 -1 -1 -0 -0 -1 -1 -1 -1 -1 -0 -0 -1 -1 -1 -0 0 0 -0 -0 1 1 0 0 0 0 0 -1 -1 -1 -2 -2 -1 -1 -2 -2 -2 -2 -1 -0 1 1 0 -0 -1 -2 -2 -2 -2 -2 -0 0 -0 -1 -0 -0 -1 -3 -3 -0 3 6 3
-0 -0 0 -0 -0 0 0 0 0 -0 -1 -1 -1 -1 -1 -0 -0 -0 -1 -1 -0 0 1 2 2 1 1 1 -0 -1 -1 -0 0 -0 -1 -2 -2 -2 -2 -1 -1 -2 -2 -0 2 2 1 1 1 1 -0 -1 -1 0 1 0 -1 -1 -1 0 1 0 -1 -2 -2 1 4 6 3
-1 -1 -0 0 0 0 0 0 1 0 -0 -1 -1 -1 -1 0 -0 -0 -0 -0 0 0 1 2 2 1 -0 -1 -1 -1 -1 -1 -0 -0 -1 -2 -2 -2 -1 -0 0 0 0 2 3 2 0 0 -0 0 0 0 -0 0 1 2 1 -1 -2 -1 -0 -0 -1 -2 -1 2 5 6 3
-0 -0 -0 -0 0 0 0 0 0 0 0 -1 -1 -1 -0 0 0 1 1 1 0 0 -0 -0 -1 -1 -2 -2 -2 -2 -2 -1 -1 -0 -1 -2 -2 -1 1 2 2 3 3 4 1 -1 -1 0 1 -0 -1 -0 -2 -2 -1 3 3 1 -1 -1 -1 -1 -1 -1 0 3 6 5 2
1 1 1 1 0 0 0 0 0 -0 -1 -1 -1 -1 -1 -0 0 1 1 0 0 -0 -0 -1 -1 -1 -1 -1 -2 -2 -2 -2 -1 -1 -1 -2 -2 -0 2 4 4 4 3 2 -2 -2 -1 1 2 1 -0 -1 -3 -3 -2 2 3 3 1 -0 -2 -1 0 1 2 4 6 6 2
0 1 1 1 1 1 0 0 0 -0 -1 -1 -1 -1 -0 0 0 0 -0 -1 -0 -0 -1 -1 -1 -1 -1 -0 -1 -1 -1 -1 -1 -2 -2 -2 -1 1 2 3 2 1 -1 -3 -3 -2 0 2 2 2 2 1 -2 -3 -2 1 2 2 2 1 -1 -1 -0 1 2 5 7 5 2
-0 0 0 -0 0 0 0 0 0 0 -1 -2 -1 -0 0 1 1 0 -0 -0 -1 -1 -1 -1 -1 -1 -1 -1 -1 -0 -0 -0 -1 -2 -3 -3 -0 1 2 1 -2 -4 -5 -5 -2 -0 1 1 1 2 2 1 -1 -2 -2 1 3 4 3 2 0 -1 -1 -2 2 5 7 4 2
-0 0 0 -0 -0 0 -0 -0 -0 -1 -1 -2 -1 -1 -0 -0 -0 -1 -0 -0 -1 -1 -1 -0 -1 -1 -1 -1 -1 -0 0 0 -0 -2 -3 -3 -1 0 0 -2 -4 -5 -4 -2 -0 0 0 0 0 0 1 1 0 -0 0 2 5 5 4 3 2 -0 -2 -2 4 6 5 2 2
-0 0 0 1 0 0 -0 -1 -1 -2 -2 -2 -2 -2 -2 -2 -2 -2 -2 -1 -1 -1 -1 0 0 -1 -1 -1 -1 -1 -0 0 0 -1 -2 -2 -2 -1 -2 -3 -3 -2 -1 0 1 0 -0 -1 -1 -2 -2 -0 2 3 4 4 5 4 2 1 1 -0 -0 2 5 4 2 1 2
0 -0 0 0 0 -0 -1 -1 -2 -2 -3 -2 -2 -2 -3 -3 -3 -2 -2 -2 -1 -1 -1 -1 -0 -0 -1 -1 -1 -1 -1 -0 -0 -0 -1 -2 -2 -2 -3 -3 -1 -0 0 1 1 1 -0 -1 -2 -2 -3 -2 2 5 7 8 5 2 1 0 -0 0 2 4 3 1 0 1 2
0 0 0 0 -0 -0 -1 -2 -2 -3 -3 -3 -2 -3 -3 -3 -3 -2 -1 -1 -1 -1 -2 -2 -1 -0 0 0 -0 -0 -0 -0 -0 -1 -1 -1 -1 -1 -1 -2 -1 -0 0 0 0 1 1 -1 -2 -2 -2 -2 -1 2 6 7 3 2 2 3 3 3 3 2 1 -0 -0 -0 0
-0 -0 -0 -0 -0 -1 -1 -2 -3 -3 -3 -3 -3 -2 -2 -2 -1 -0 1 1 -0 -1 -2 -2 -3 -2 0 2 1 0 -0 -0 -1 -1 -2 -2 -0 0 -0 -2 -2 -1 -1 -1 -1 0 1 -0 -2 -2 -1 -2 -2 -2 -0 1 0 1 4 9 9 6 3 0 -0 -0 -0 0 -0
-1 -1 -0 -0 -1 -1 -1 -1 -2 -2 -3 -2 -2 -1 -1 -0 0 2 3 3 0 -2 -2 -2 -2 -2 -1 1 1 1 -0 -1 -2 -2 -2 -2 -1 -0 -1 -2 -2 -2 -2 -2 -2 -2 -1 -0 -0 0 0 1 0 -1 -2 -2 -1 2 6 13 11 7 2 0 -0 -0 0 0 -0
-1 -1 -1 -1 -1 -1 -1 -1 -1 -1 -2 -2 -1 -1 -0 0 2 3 4 3 1 -1 -3 -2 -1 -1 -1 -1 0 1 0 -1 -2 -2 -2 -3 -2 -2 -2 -2 -1 -1 -2 -3 -4 -4 -3 -2 -0 1 3 5 6 5 3 1 2 4 8 12 8 4 1 1 0 0 0 -0 -1
-1 -1 -1 -1 -1 -1 -1 -0 -0 -1 -1 -1 -1 -1 -0 1 2 3 3 3 2 0 -2 -3 -2 -0 0 -0 -0 0 1 -0 -1 -2 -2 -2 -1 -2 -2 -2 -1 -1 -3 -4 -4 -4 -4 -4 -2 0 3 6 6 6 6 6 7 7 7 6 4 2 1 1 1 1 1 0 -1
-1 -1 -1 -1 -1 -0 -0 -0 -0 -1 -1 -1 -1 -1 -1 0 2 3 3 2 2 1 -0 -3 -3 -1 1 1 1 1 1 1 -0 -1 -1 -1 -1 -1 -1 -1 -1 -2 -3 -4 -4 -4 -4 -4 -3 -1 0 1 1 3 6 11 10 6 3 3 3 2 1 1 1 2 2 1 0
-0 -0 -0 -0 -0 -0 -0 -0 -0 -0 -1 -1 -1 -1 -1 0 2 4 4 3 1 1 -0 -1 -2 -2 -1 0 1 2 2 2 1 0 -1 -1 -1 -1 -2 -2 -2 -3 -4 -4 -4 -4 -3 -3 -2 -2 -2 -3 -2 4 10 13 7 3 2 3 2 1 1 0 1 1 1 2 2
0 0 0 1 0 -0 -0 -0 -0 -0 -1 -1 -1 -0 0 1 3 4 4 2 1 -0 -1 -1 -1 -2 -2 -1 1 3 3 3 3 1 -0 -1 -1 -2 -2 -2 -3 -5 -6 -4 -3 -2 -2 -1 -0 -0 -1 -3 3 11 15 9 4 2 2 2 1 -0 -0 0 -0 -1 -0 4 4
1 1 1 1 0 0 0 0 0 -0 -1 -1 -0 0 1 2 4 4 3 1 -0 -1 -1 -1 -1 -1 -1 -0 2 4 4 3 3 2 1 -0 -2 -2 -2 -2 -4 -7 -7 -4 -3 -3 -3 -3 -1 1 2 3 14 17 14 5 3 2 1 -1 -2 -2 -1 -0 -1 -2 1 7 7
1 1 1 0 -0 -0 -0 -0 -0 -0 -1 -1 -0 0 1 1 1 1 0 -0 -1 -1 -0 -0 -1 -1 -1 -1 2 4 5 3 2 1 1 1 -1 -2 -3 -3 -5 -6 -6 -3 -3 -4 -6 -8 -9 -5 2 15 20 15 7 4 2 0 -2 -3 -3 -3 -2 -1 -1 -1 2 9 7
0 0 -0 -1 -1 -1 -1 -1 -1 -1 -1 -0 0 0 0 -0 -1 -1 -1 -1 -0 0 0 -0 -1 -2 -2 -2 1 3 4 3 1 0 -0 -0 -0 -2 -3 -5 -5 -5 -4 -0 -0 -1 -1 -2 -7 -2 9 24 15 9 5 4 2 -0 -3 -4 -4 -3 -2 -1 -0 1 3 6 4
-0 -1 -1 -2 -2 -2 -1 -1 -1 -1 -1 0 0 0 -0 -1 -1 -1 -1 -1 -0 -0 -1 -1 -2 -2 -2 -2 -1 0 2 2 2 1 -0 -2 -3 -3 -4 -6 -6 -4 -2 1 -0 1 4 7 12 24 32 25 10 5 4 3 2 0 -2 -3 -2 -2 -2 -1 -0 2 3 3 1
-1 -2 -2 -2 -1 -1 -1 -1 -0 0 0 0 -0 -0 -0 -0 -0 -0 0 -0 -1 -1 -1 -2 -2 -2 -1 -1 -1 -2 -2 -1 1 2 1 -2 -4 -6 -6 -7 -5 -4 -2 -1 -3 -2 3 10 32 45 41 13 6 3 3 3 3 2 0 -1 -1 -0 2 5 3 2 1 2 2
-2 -2 -2 -1 -0 -0 -0 0 0 0 -0 -1 -1 -1 -0 -0 0 1 1 0 -1 -2 -2 -1 0 1 1 -1 -2 -3 -3 -3 -1 0 1 -1 -3 -5 -7 -8 -5 -3 -2 -4 -4 -3 3 17 51 51 30 -1 1 1 2 2 3 3 1 -1 -2 -1 4 14 12 6 0 2 2
-1 -1 -0 -0 0 0 0 0 -0 -1 -1 -1 -0 0 -0 -0 1 1 1 -0 -2 -3 -2 0 2 1 0 -2 -2 -2 -2 -3 -2 -2 -1 -2 -3 -4 -6 -7 -4 -3 -3 -4 -2 -1 8 30 61 48 18 -4 -2 0 1 1 2 1 -1 -2 -3 -2 4 16 21 11 0 2 2
1 0 0 -0 -0 -0 -0 -1 -1 -1 -1 -0 0 0 -0 -0 0 -0 -1 -3 -3 -3 -1 1 0 -1 -1 -1 -1 -2 -3 -3 -2 -2 -3 -4 -5 -5 -6 -5 -3 -2 -2 -1 1 6 19 40 56 44 19 0 0 0 0 -0 0 -0 -1 -1 -2 -1 3 12 26 16 1 0 1
1 -0 -1 -1 -0 -0 -1 -1 -1 -1 -0 -0 -0 -0 -1 -1 -2 -2 -3 -4 -3 -1 1 2 0 -0 0 2 1 -0 -2 -3 -2 -3 -3 -4 -5 -6 -6 -5 -2 -1 -0 2 6 18 32 42 39 33 22 6 2 1 0 -1 -0 -0 -0 -0 -1 -1 1 7 25 18 3 -2 -1
-1 -2 -2 -1 -1 -1 -1 -1 -1 -1 -1 -0 -1 -1 -1 -1 -2 -2 -2 -3 -2 -2 -1 -1 -1 -0 1 2 3 2 1 -2 -3 -3 -3 -3 -5 -6 -7 -5 -2 -1 -0 2 6 24 40 39 24 16 11 4 2 1 1 -0 -0 0 0 0 -1 -1 0 5 19 14 2 -3 -1
-2 -2 -2 -1 -1 -1 -2 -2 -2 -1 -1 -1 -1 -1 -1 -2 -1 -1 -1 -1 -2 -3 -4 -4 -3 -3 -2 -2 1 1 1 -1 -2 -3 -2 -2 -4 -6 -7 -6 -4 -3 -2 -0 5 27 46 42 14 3 0 0 1 1 1 0 0 0 1 1 -0 -0 2 7 16 10 0 -4 -1
-1 -1 -1 -1 -2 -2 -2 -2 -2 -2 -2 -2 -1 -1 -1 -2 -3 -3 -2 -1 -1 -1 -1 -2 -1 -1 -1 -1 -0 0 0 1 -1 -2 -2 -1 -2 -4 -6 -6 -4 -3 -3 -1 7 31 52 49 12 -2 -3 -2 -0 1 1 1 1 1 1 1 -0 -0 2 8 22 20 10 -1 -1
-1 -1 -1 -1 -2 -2 -3 -3 -2 -2 -2 -2 -1 -1 -1 -2 -3 -3 -2 -1 1 1 1 2 2 2 2 3 3 3 2 0 -2 -3 -2 -2 -2 -4 -5 -5 -3 -2 -1 1 11 36 56 50 11 -3 -4 -2 -1 -0 -0 0 1 1 1 1 -1 -2 -1 3 22 32 30 13 3
-1 -2 -2 -2 -2 -3 -3 -3 -2 -2 -2 -2 -2 -2 -2 -1 -1 -1 -1 -0 1 1 1 1 1 1 1 1 3 3 2 -1 -3 -3 -2 -1 -2 -3 -4 -4 -3 -2 -0 1 13 36 53 48 14 -2 -7 -4 -3 -1 -1 -1 -0 0 1 1 -2 -4 -5 -6 8 25 37 35 17
-1 -2 -2 -3 -3 -3 -3 -3 -3 -2 -2 -2 -2 -3 -3 -2 -1 -0 -0 -1 -0 -0 -1 -1 -1 -1 -2 -2 -0 2 2 1 -2 -3 -3 -1 1 0 -2 -4 -3 -2 -2 -3 10 31 48 47 19 -1 -10 -9 -6 -3 -2 -2 -1 -1 -1 -1 -3 -4 -6 -8 -4 6 20 35 31
-1 -1 -2 -3 -4 -3 -3 -3 -3 -3 -2 -2 -2 -2 -3 -2 -2 -2 -2 -1 -2 -3 -4 -4 -2 -1 -0 0 1 2 3 3 -0 -2 -2 -1 3 3 1 -4 -2 -3 -5 -7 5 27 44 46 26 6 -10 -13 -10 -6 -4 -2 -2 -3 -3 -3 -3 -3 -4 -6 -7 -6 -2 9 21
-1 -1 -2 -2 -3 -3 -3 -3 -3 -3 -3 -3 -3 -2 -2 -2 -2 -2 -1 0 -1 -3 -5 -6 -2 0 2 3 1 1 1 3 2 0 -1 -1 3 4 2 -3 -3 -5 -7 -9 2 22 40 41 31 15 -2 -13 -12 -9 -6 -3 -2 -3 -3 -3 -3 -3 -3 -4 -5 -6 -7 -7 0
-1 -1 -1 -2 -2 -2 -3 -2 -2 -2 -3 -3 -4 -3 -2 -1 -1 -1 -1 0 0 -1 -2 -4 -1 2 4 4 1 -1 -1 1 2 2 1 0 1 2 1 -3 -4 -6 -7 -8 -0 16 30 31 27 19 6 -11 -13 -11 -7 -3 -1 -1 -2 -3 -4 -4 -4 -3 -3 -3 -4 -6 -7
-1 -1 -1 -1 -1 -2 -2 -2 -2 -2 -2 -2 -2 -1 0 1 0 -1 -2 -2 -1 -1 -1 -2 -0 2 5 5 3 -1 -3 -3 -0 1 2 1 -0 -1 -2 -4 -5 -7 -7 -7 -1 10 19 18 18 16 9 -7 -11 -11 -9 -6 -3 -2 -2 -4 -4 -5 -5 -4 -2 -2 -2 -3 -5
-0 -1 -1 -1 -1 -1 -1 -2 -2 -1 0 2 3 4 4 1 -1 -3 -4 -4 -3 -3 -2 -2 -1 2 5 6 5 2 -2 -4 -2 0 1 1 -1 -2 -4 -5 -6 -8 -8 -7 -2 6 13 12 11 12 9 -1 -7 -9 -9 -9 -7 -6 -4 -4 -4 -4 -4 -5 -4 -3 -2 -2 -4
Height
1537 1535 1534 1532 1531 1529 1527 1526 1524 1522 1521 1519 1517 1515 1514 1512 1511 1509 1508 1507 1506 1504 1503 1501 1500 1498 1497 1495 1494 1492 1491 1489 1487 1486 1484 1482 1481 1479 1478 1477 1476 1475 1474 1473 1472 1471 1470 1470 1468 1467 1465 1464 1463 1462 1461 1459 1458 1458 1457 1456 1455 1453 1452 1451 1449 1448 1447 1447 1446
1536 1535 1533 1532 1530 1528 1527 1525 1523 1522 1520 1518 1517 1515 1513 1512 1511 1509 1508 1507 1506 1504 1502 1501 1499 1498 1496 1495 1493 1492 1490 1488 1486 1484 1482 1481 1480 1478 1477 1476 1475 1474 1473 1472 1471 1470 1469 1468 1467 1465 1464 1462 1461 1460 1459 1458 1458 1457 1456 1454 1452 1451 1450 1449 1447 1447 1446 1445 1444
1535 1534 1532 1531 1529 1527 1526 1524 1522 1521 1519 1517 1516 1514 1513 1512 1510 1509 1507 1506 1505 1503 1502 1501 1499 1497 1496 1494 1492 1491 1489 1487 1485 1483 1482 1480 1478 1477 1476 1475 1474 1473 1472 1471 1470 1470 1468 1467 1466 1464 1463 1461 1460 1459 1457 1457 1457 1456 1454 1452 1451 1449 1448 1447 1446 1445 1444 1444 1443
1535 1533 1532 1530 1528 1527 1525 1523 1522 1520 1518 1517 1515 1514 1512 1511 1510 1509 1507 1506 1504 1503 1502 1500 1498 1497 1495 1494 1492 1490 1488 1486 1484 1482 1481 1479 1478 1477 1475 1474 1473 1472 1471 1470 1469 1468 1467 1466 1464 1463 1462 1460 1459 1458 1457 1456 1455 1453 1452 1450 1449 1448 1447 1446 1444 1444 1443 1442 1441
1534 1532 1531 1530 1528 1526 1525 1523 1521 1519 1518 1516 1514 1513 1512 1511 1510 1508 1507 1505 1504 1503 1502 1500 1498 1497 1495 1493 1491 1488 1487 1485 1483 1482 1480 1478 1477 1476 1475 1474 1472 1471 1470 1469 1468 1467 1466 1464 1463 1462 1460 1459 1458 1457 1456 1455 1453 1452 1450 1449 1448 1447 1446 1444 1443 1442 1442 1441 1440
1533 1532 1530 1529 1527 1526 1524 1522 1521 1519 1517 1516 1514 1512 1511 1510 1509 1507 1506 1505 1503 1502 1501 1500 1498 1496 1494 1492 1489 1487 1485 1484 1482 1481 1479 1478 1476 1475 1474 1473 1472 1471 1470 1468 1467 1466 1464 1463 1462 1460 1459 1457 1457 1455 1454 1453 1452 1450 1448 1447 1446 1445 1444 1443 1442 1441 1440 1440 1438
1533 1531 1530 1528 1527 1525 1523 1522 1520 1518 1517 1515 1513 1512 1511 1510 1508 1507 1506 1504 1503 1502 1500 1498 1497 1495 1492 1490 1488 1486 1484 1483 1481 1480 1478 1477 1476 1475 1473 1472 1472 1470 1469 1467 1466 1464 1463 1462 1460 1459 1457 1456 1455 1453 1452 1452 1450 1449 1447 1446 1445 1444 1443 1442 1441 1440 1439 1438 1437
1532 1531 1529 1528 1526 1524 1523 1521 1519 1517 1516 1514 1513 1512 1510 1509 1508 1507 1505 1504 1502 1501 1499 1497 1495 1493 1492 1489 1487 1486 1484 1482 1480 1479 1478 1477 1475 1474 1473 1472 1471 1469 1468 1466 1465 1463 1462 1460 1459 1458 1456 1455 1454 1452 1451 1450 1449 1447 1446 1444 1443 1442 1442 1441 1439 1439 1438 1437 1436
1531 1530 1528 1527 1525 1524 1522 1520 1519 1517 1515 1514 1512 1511 1510 1509 1507 1506 1504 1503 1501 1500 1498 1496 1494 1492 1491 1489 1487 1485 1483 1482 1480 1478 1477 1476 1475 1473 1472 1471 1470 1468 1467 1465 1463 1462 1460 1459 1458 1456 1455 1454 1452 1451 1450 1449 1447 1446 1444 1443 1442 1441 1440 1439 1438 1437 1437 1436 1434
1531 1529 1527 1526 1524 1523 1521 1519 1518 1516 1515 1513 1512 1510 1509 1508 1507 1505 1504 1502 1501 1499 1497 1496 1494 1492 1490 1488 1486 1484 1483 1481 1479 1478 1476 1475 1474 1473 1472 1470 1468 1467 1465 1463 1462 1460 1459 1457 1456 1455 1453 1452 1451 1450 1449 1447 1446 1444 1443 1442 1441 1440 1439 1438 1437 1437 1436 1434 1433
1530 1528 1527 1525 1523 1522 1520 1518 1517 1515 1514 1512 1511 1510 1508 1507 1506 1504 1503 1501 1500 1498 1497 1495 1493 1491 1489 1487 1486 1484 1482 1481 1479 1477 1476 1474 1473 1472 1471 1469 1467 1466 1464 1462 1461 1459 1457 1456 1454 1453 1452 1451 1450 1448 1447 1445 1444 1442 1442 1441 1440 1439 1437 1437 1436 1436 1435 1433 1432
1529 1528 1526 1525 1523 1521 1519 1517 1516 1514 1513 1511 1510 1509 1507 1506 1505 1503 1502 1501 1499 1497 1496 1494 1493 1491 1489 1487 1485 1483 1482 1480 1478 1477 1475 1474 1473 1471 1470 1468 1466 1464 1462 1461 1460 1458 1456 1455 1453 1452 1450 1449 1448 1447 1445 1444 1442 1441 1440 1440 1439 1438 1437 1436 1436 1435 1433 1432 1430
1529 1527 1525 1524 1522 1520 1518 1517 1515 1513 1512 1511 1509 1508 1507 1505 1504 1502 1501 1500 1498 1497 1495 1494 1492 1490 1488 1487 1485 1483 1481 1479 1477 1476 1475 1473 1472 1470 1469 1467 1465 1463 1462 1460 1458 1457 1455 1454 1452 1451 1449 1448 1447 1445 1444 1442 1441 1440 1439 1438 1437 1437 1437 1436 1435 1433 1432 1431 1429
1528 1526 1525 1523 1521 1519 1517 1516 1514 1512 1511 1510 1508 1507 1506 1504 1503 1502 1501 1499 1498 1497 1495 1493 1491 1490 1488 1486 1484 1482 1481 1479 1477 1476 1474 1473 1471 1470 1468 1466 1464 1462 1460 1459 1457 1456 1454 1453 1451 1450 1448 1447 1445 1444 1442 1441 1440 1439 1438 1437 1437 1437 1436 1435 1434 1432 1431 1429 1428
1527 1525 1524 1522 1520 1519 1517 1515 1513 1512 1510 1509 1508 1507 1505 1504 1503 1502 1500 1499 1497 1496 1494 1492 1490 1489 1487 1486 1484 1482 1480 1478 1477 1475 1473 1472 1470 1469 1467 1465 1463 1461 1459 1457 1456 1454 1453 1452 1451 1449 1447 1446 1444 1442 1441 1440 1439 1437 1437 1437 1437 1437 1435 1434 1432 1431 1430 1428 1427
1526 1524 1523 1521 1519 1518 1516 1515 1513 1511 1510 1508 1507 1506 1505 1503 1502 1501 1500 1498 1497 1495 1493 1492 1490 1488 1486 1485 1483 1482 1479 1477 1476 1474 1472 1471 1469 1468 1466 1464 1462 1460 1458 1456 1454 1453 1452 1451 1450 1448 1447 1445 1442 1441 1439 1438 1437 1436 1436 1437 1437 1436 1435 1433 1432 1431 1429 1428 1426
1525 1523 1522 1520 1518 1517 1515 1514 1512 1511 1509 1508 1507 1506 1504 1503 1502 1501 1500 1498 1496 1494 1492 1491 1489 1487 1486 1484 1482 1481 1479 1477 1475 1474 1472 1470 1469 1467 1465 1463 1461 1459 1457 1455 1453 1452 1450 1449 1448 1447 1445 1443 1441 1439 1437 1437 1436 1436 1436 1436 1436 1435 1434 1432 1431 1430 1428 1427 1426
1524 1522 1521 1519 1517 1516 1514 1513 1512 1510 1509 1507 1506 1505 1504 1502 1501 1500 1499 1497 1496 1494 1492 1490 1488 1487 1485 1483 1482 1480 1478 1477 1475 1473 1472 1470 1468 1466 1464 1462 1461 1458 1457 1454 1452 1451 1449 1448 1447 1446 1444 1441 1439 1437 1437 1436 1436 1436 1436 1435 1435 1434 1433 1432 1431 1429 1428 1426 1425
1523 1522 1520 1518 1517 1515 1513 1512 1511 1509 1508 1507 1505 1504 1503 1502 1501 1499 1498 1496 1495 1493 1491 1489 1487 1485 1484 1482 1481 1479 1478 1476 1475 1473 1471 1470 1468 1466 1464 1462 1459 1457 1455 1453 1452 1450 1449 1447 1446 1444 1442 1439 1438 1437 1436 1436 1436 1436 1435 1435 1434 1433 1432 1431 1430 1429 1427 1426 1424
1522 1521 1519 1517 1516 1514 1512 1511 1510 1508 1507 1506 1504 1503 1502 1501 1499 1498 1497 1495 1493 1492 1490 1488 1486 1484 1483 1482 1480 1479 1477 1476 1474 1472 1471 1469 1467 1465 1463 1461 1458 1456 1454 1453 1451 1449 1448 1446 1444 1442 1440 1438 1437 1436 1436 1437 1436 1435 1435 1434 1433 1432 1432 1431 1429 1428 1427 1425 1424
1522 1520 1518 1517 1515 1513 1512 1510 1509 1507 1506 1505 1503 1502 1501 1500 1498 1497 1496 1494 1492 1491 1489 1487 1486 1484 1482 1480 1479 1478 1476 1475 1474 1472 1470 1468 1467 1465 1462 1460 1457 1455 1453 1452 1450 1448 1447 1445 1442 1440 1438 1437 1437 1437 1437 1437 1436 1435 1434 1434 1433 1432 1431 1430 1429 1427 1426 1425 1424
1521 1519 1517 1516 1514 1512 1511 1509 1508 1507 1505 1504 1502 1501 1500 1499 1497 1496 1495 1493 1491 1489 1488 1486 1485 1483 1482 1480 1478 1477 1476 1474 1473 1472 1470 1468 1466 1464 1462 1459 1457 1455 1452 1451 1449 1447 1445 1443 1441 1439 1437 1437 1437 1438 1437 1437 1436 1435 1434 1433 1432 1432 1431 1429 1428 1427 1426 1424 1423
1520 1518 1517 1515 1513 1511 1510 1508 1507 1506 1504 1503 1502 1500 1499 1498 1497 1495 1493 1492 1490 1488 1487 1485 1484 1482 1481 1479 1478 1477 1475 1473 1472 1471 1469 1467 1465 1463 1461 1458 1456 1454 1452 1450 1448 1447 1444 1442 1439 1437 1437 1437 1438 1438 1437 1436 1435 1434 1433 1433 1432 1431 1430 1429 1427 1426 1425 1424 1423
1519 1517 1515 1514 1512 1511 1509 1508 1506 1505 1503 1502 1501 1500 1498 1497 1495 1493 1492 1490 1489 1487 1486 1485 1483 1482 1480 1478 1477 1476 1474 1473 1471 1469 1468 1467 1465 1462 1460 1457 1455 1453 1451 1449 1448 1446 1444 1442 1440 1438 1437 1437 1437 1437 1436 1435 1434 1434 1433 1432 1432 1431 1430 1428 1427 1426 1425 1424 1422
1518 1516 1515 1513 1512 1510 1509 1507 1506 1505 1503 1502 1501 1499 1498 1496 1494 1492 1491 1489 1488 1487 1485 1484 1482 1481 1479 1478 1477 1475 1474 1472 1470 1468 1467 1465 1463 1462 1459 1457 1454 1452 1450 1448 1447 1446 1445 1443 1441 1439 1438 1437 1436 1436 1435 1435 1434 1433 1433 1432 1431 1430 1429 1428 1427 1426 1425 1424 1422
1517 1516 1514 1512 1511 1510 1508 1507 1506 1504 1503 1502 1500 1498 1497 1495 1493 1492 1490 1489 1487 1486 1484 1483 1482 1480 1478 1477 1476 1474 1473 1471 1470 1468 1466 1464 1462 1460 1458 1456 1453 1452 1450 1448 1447 1445 1443 1442 1441 1440 1437 1435 1435 1435 1435 1434 1433 1433 1432 1432 1431 1430 1429 1428 1427 1426 1425 1423 1422
1517 1515 1514 1512 1511 1510 1508 1507 1506 1504 1503 1501 1499 1498 1496 1495 1493 1492 1490 1488 1487 1486 1484 1482 1481 1480 1478 1477 1475 1473 1472 1470 1469 1467 1466 1464 1462 1460 1457 1455 1453 1451 1449 1448 1447 1445 1443 1442 1441 1439 1436 1435 1435 1435 1434 1434 1433 1432 1432 1432 1431 1429 1428 1428 1427 1426 1425 1424 1422
1517 1516 1514 1512 1511 1510 1508 1507 1505 1504 1502 1501 1499 1497 1496 1494 1493 1491 1490 1488 1487 1485 1483 1482 1481 1479 1478 1476 1475 1473 1472 1470 1468 1467 1465 1463 1461 1459 1457 1455 1452 1451 1449 1448 1447 1445 1444 1443 1442 1439 1436 1435 1435 1435 1434 1434 1433 1432 1432 1431 1430 1429 1428 1427 1427 1426 1425 1424 1422
1517 1516 1514 1512 1511 1509 1508 1507 1505 1503 1502 1500 1498 1497 1495 1494 1492 1491 1490 1488 1486 1484 1483 1482 1480 1479 1477 1476 1474 1472 1471 1469 1468 1466 1464 1462 1461 1459 1457 1454 1452 1450 1449 1448 1447 1446 1446 1445 1442 1440 1437 1436 1435 1435 1434 1434 1433 1432 1432 1431 1430 1429 1427 1427 1427 1426 1425 1424 1423
1517 1516 1514 1512 1511 1509 1507 1506 1504 1503 1501 1500 1498 1497 1495 1494 1492 1491 1489 1487 1486 1484 1483 1482 1480 1478 1477 1475 1474 1472 1471 1469 1467 1466 1464 1462 1460 1458 1456 1454 1452 1450 1448 1447 1446 1446 1446 1445 1442 1440 1438 1437 1436 1435 1434 1434 1433 1433 1432 1431 1430 1429 1427 1426 1427 1427 1425 1424 1423
1517 1515 1513 1512 1510 1509 1507 1506 1504 1502 1501 1499 1498 1497 1495 1493 1492 1491 1489 1487 1486 1485 1483 1482 1480 1478 1477 1475 1473 1472 1470 1469 1467 1465 1464 1462 1460 1458 1456 1453 1452 1450 1448 1447 1446 1447 1447 1444 1441 1439 1438 1437 1436 1435 1435 1434 1434 1433 1432 1432 1430 1429 1428 1427 1427 1427 1426 1425 1424
1517 1515 1513 1512 1510 1508 1507 1505 1504 1502 1501 1499 1498 1496 1495 1493 1492 1491 1489 1487 1486 1484 1482 1481 1479 1477 1476 1474 1473 1472 1470 1469 1467 1465 1464 1462 1460 1458 1456 1453 1452 1450 1448 1447 1446 1447 1447 1445 1442 1440 1439 1437 1436 1435 1435 1435 1434 1434 1433 1432 1431 1430 1428 1427 1428 1427 1427 1425 1424
1516 1514 1513 1512 1510 1508 1507 1505 1504 1502 1501 1499 1498 1496 1495 1493 1492 1490 1489 1487 1486 1484 1482 1481 1479 1477 1476 1474 1473 1471 1470 1468 1467 1465 1464 1462 1460 1458 1456 1454 1452 1450 1449 1447 1447 1447 1447 1445 1442 1440 1439 1438 1437 1436 1435 1435 1435 1434 1433 1432 1431 1430 1429 1428 1428 1428 1427 1426 1425
1515 1514 1512 1511 1510 1508 1507 1505 1504 1502 1501 1499 1497 1496 1495 1493 1491 1490 1488 1487 1486 1484 1482 1481 1479 1478 1476 1475 1473 1472 1470 1468 1467 1465 1464 1462 1460 1458 1457 1454 1452 1451 1449 1448 1447 1447 1447 1445 1442 1441 1440 1439 1437 1437 1436 1436 1435 1434 1433 1432 1432 1431 1430 1428 1428 1428 1428 1427 1426
1515 1514 1512 1511 1510 1508 1507 1505 1503 1502 1500 1499 1497 1496 1494 1493 1492 1490 1488 1487 1486 1484 1482 1481 1479 1478 1476 1475 1473 1472 1470 1469 1467 1465 1464 1462 1460 1459 1457 1455 1453 1452 1450 1448 1447 1447 1447 1445 1442 1441 1440 1439 1438 1437 1437 1436 1435 1435 1434 1433 1432 1432 1431 1429 1427 1428 1428 1428 1427
1515 1514 1512 1511 1510 1508 1507 1505 1503 1502 1500 1499 1497 1496 1494 1493 1492 1490 1489 1487 1486 1484 1482 1481 1479 1477 1476 1474 1473 1472 1470 1469 1467 1466 1464 1462 1461 1459 1457 1456 1454 1452 1451 1449 1447 1447 1447 1445 1443 1442 1441 1440 1439 1438 1438 1437 1436 1435 1434 1434 1433 1432 1432 1430 1428 1427 1427 1428 1428
1516 1514 1513 1512 1510 1508 1507 1505 1503 1502 1501 1499 1497 1496 1494 1493 1492 1490 1489 1487 1486 1484 1482 1481 1479 1477 1476 1474 1473 1472 1471 1469 1468 1466 1464 1463 1461 1460 1458 1457 1455 1453 1452 1449 1448 1448 1447 1446 1444 1442 1441 1441 1440 1439 1439 1438 1437 1436 1435 1434 1434 1433 1432 1432 1430 1429 1428 1427 1428
1516 1515 1513 1512 1510 1508 1507 1505 1504 1502 1501 1499 1497 1496 1495 1493 1492 1490 1489 1488 1486 1484 1482 1480 1479 1477 1476 1475 1474 1472 1471 1470 1468 1467 1465 1463 1462 1461 1459 1458 1456 1454 1452 1451 1449 1449 1448 1446 1445 1443 1442 1441 1441 1441 1440 1439 1438 1437 1436 1436 1435 1434 1433 1432 1432 1431 1429 1428 1428
1517 1515 1514 1512 1511 1509 1507 1506 1504 1502 1501 1499 1497 1496 1495 1493 1492 1491 1489 1488 1486 1484 1482 1481 1479 1477 1476 1475 1474 1472 1471 1470 1469 1467 1466 1464 1463 1462 1460 1459 1457 1455 1454 1452 1451 1450 1449 1447 1446 1444 1443 1442 1442 1442 1441 1440 1439 1438 1437 1436 1436 1435 1434 1433 1432 1431 1430 1429 1429
1517 1516 1514 1512 1511 1509 1507 1506 1504 1502 1501 1499 1497 1496 1495 1494 1492 1491 1490 1488 1487 1485 1483 1481 1479 1477 1476 1475 1474 1473 1472 1470 1469 1468 1467 1465 1464 1463 1461 1460 1458 1457 1455 1453 1452 1451 1451 1449 1447 1446 1445 1444 1443 1442 1442 1441 1440 1439 1438 1437 1436 1436 1435 1433 1433 1432 1431 1430 1429
1517 1516 1514 1512 1511 1509 1507 1506 1504 1502 1501 1499 1498 1497 1496 1494 1493 1491 1490 1488 1486 1484 1482 1481 1479 1477 1476 1475 1474 1473 1472 1471 1469 1468 1467 1466 1465 1463 1462 1461 1459 1458 1456 1455 1454 1453 1452 1451 1450 1448 1447 1446 1444 1443 1442 1441 1440 1439 1438 1438 1437 1437 1436 1434 1433 1432 1432 1431 1430